Regional Weather Roundup
Issued by NWS Cleveland, OH

Home | Current Version | Previous Version | Text Only | Print | Product List | Glossary Off
Versions: 1 2 3 4 5 6 7 8 9 10 11 12 13 14 15 16 17 18 19 20 21 22 23 24 25 26 27 28 29 30 31 32 33 34 35 36 37 38 39 40 41 42 43 44 45 46 47 48 49 50

000
ASUS41 KCLE 201300
RWRCLE
OHIO REGIONAL WEATHER ROUNDUP
NATIONAL WEATHER SERVICE WILMINGTON, OH
900 AM EDT SAT SEP 20 2014

NOTE: "FAIR" INDICATES FEW OR NO CLOUDS BELOW 12,000 FEET WITH NO
SIGNIFICANT WEATHER AND/OR OBSTRUCTIONS TO VISIBILITY.

OHZ001>008-015>018-024>027-034-035-043-044-201400-
   NORTHWEST OHIO

CITY           SKY/WX    TMP DP  RH WIND       PRES   REMARKS
DEFIANCE       PTSUNNY   58  52  80 S7        30.01F
FINDLAY        MOSUNNY   63  57  81 S12       30.02F
TOLEDO EXPRESS PTSUNNY   58  53  84 SW8       30.01S
TOLEDO METCALF MOSUNNY   61  55  81 SW7       30.02F
LIMA           MOSUNNY   63  57  81 S12       30.04F
$$

OHZ009>014-019>023-028>033-038-089-201400-
   NORTHEAST OHIO

CITY           SKY/WX    TMP DP  RH WIND       PRES   REMARKS
CLE-HOPKINS    MOSUNNY   63  58  83 S13       30.08F
CLE-LAKEFRONT  SUNNY     64  58  80 S14       30.04F
CUY CO. ARPT   MOSUNNY   64  61  88 S14G23    30.07F
LORAIN-ELYRIA  SUNNY     66  59  78 S10       30.06F
ASHTABULA      SUNNY     61  57  87 S9        30.09F
AKRON-CANTON   PTSUNNY   63  57  81 S10       30.11S
WOOSTER        NOT AVBL
MANSFIELD      MOSUNNY   62  61  96 S12       30.08F
YOUNGSTOWN     PTSUNNY   61  56  83 S9        30.12S
$$

OHZ042-051>053-060>062-070>072-077>081-201400-
  SOUTHWEST OHIO

CITY           SKY/WX    TMP DP  RH WIND       PRES   REMARKS
CINC-COVINGTON MOSUNNY   66  61  84 S9        30.10S
CINC-LUNKEN    SUNNY     62  59  90 CALM      30.11S
HAMILTON       MOSUNNY   60  56  86 CALM      30.10S
DAYTON         NOT AVBL
WRIGHT-PAT AFB MOSUNNY   61  58  91 SE6       30.08F
DAYTON GENERAL SUNNY     64  61  90 S13       30.09S
WILMINGTON     MOSUNNY   65  60  84 S10       30.10F
$$

OHZ036-037-039>041-045>050-054>059-063>069-073>076-082>088-201400-
  CENTRAL AND SOUTHEAST OHIO

CITY           SKY/WX    TMP DP  RH WIND       PRES   REMARKS
COLUMBUS       PTSUNNY   66  59  78 S6        30.10F
OSU AIRPORT    MOSUNNY   63  59  87 S10       30.09F
BOLTON FIELD   NOT AVBL
RICKENBACK AFB NOT AVBL
NEWARK         SUNNY     64  58  80 SW7       30.11F
MARION         MOSUNNY   61  58  90 S14       30.08S FOG
LANCASTER      PTSUNNY   66  59  78 S8        30.12S
ZANESVILLE     MOSUNNY   64  57  78 S13       30.13S
NEW PHILLY     SUNNY     65  58  78 S9        30.13S
$$


USA.gov is the U.S. government's official web portal to all federal, state and local government web resources and services.